FW8347 Weather Reports


time (UTC)temp
C
wind
direction
speed
KPH
gust
KPH
rain 1hr
cm
rain 24hr
cm
rain mn
cm
humidity
%
barometer
mb
20260905004554 21 338 4.8 14.5 0.00 0.00 0.00 86 1013.3
20260905003051 21 330 4.8 14.5 0.00 0.00 0.00 86 1013.3
20260905001546 21 329 4.8 12.9 0.00 0.00 0.00 86 1013.2
20260905000048 21 306 1.6 9.7 0.00 0.00 0.00 86 1013.1
20260904234555 22 338 3.2 11.3 0.00 0.00 0.00 84 1012.9
20260904233056 22 345 3.2 8.0 0.00 0.00 0.00 84 1012.9
20260904231557 22 318 4.8 9.7 0.00 0.00 0.00 82 1012.9
20260904230109 22 323 3.2 8.0 0.00 0.00 0.00 82 1012.7
20260904224605 22 344 3.2 8.0 0.00 0.00 0.00 81 1012.5
20260904223106 22 317 4.8 11.3 0.00 0.00 0.00 81 1012.5
20260904221558 22 342 3.2 9.7 0.00 0.00 0.00 80 1012.5
20260904220059 23 334 4.8 14.5 0.00 0.00 0.00 79 1012.6
20260904214556 23 319 3.2 8.0 0.00 0.00 0.00 77 1012.6
20260904213052 25 321 6.4 9.7 0.00 0.00 0.00 76 1012.7
20260904211547 25 335 4.8 12.9 0.00 0.00 0.00 75 1012.9
20260904210057 25 323 4.8 12.9 0.00 0.00 0.00 75 1012.9
20260904204548 25 323 4.8 14.5 0.00 0.00 0.00 74 1013.1
20260904203059 25 331 4.8 12.9 0.00 0.00 0.00 74 1013.1
20260904201621 25 331 4.8 11.3 0.00 0.00 0.00 74 1013.2
20260904200115 26 346 6.4 14.5 0.00 0.00 0.00 73 1013.5
20260904194553 26 324 4.8 14.5 0.00 0.00 0.00 73 1013.7
20260904193048 26 355 4.8 12.9 0.00 0.00 0.00 71 1013.8
20260904191556 27 326 4.8 9.7 0.00 0.00 0.00 72 1014.0
20260904190050 26 330 3.2 9.7 0.00 0.00 0.00 74 1014.1
20260904184547 26 341 4.8 12.9 0.00 0.00 0.00 74 1014.2
20260904183057 26 292 4.8 11.3 0.00 0.00 0.00 73 1014.2
20260904181554 26 319 6.4 12.9 0.00 0.00 0.00 72 1014.2
20260904180046 26 331 4.8 12.9 0.00 0.00 0.00 74 1014.3
20260904174555 26 329 4.8 9.7 0.00 0.00 0.00 73 1014.4
20260904173053 26 331 4.8 12.9 0.00 0.00 0.00 74 1014.6
20260904171613 26 298 6.4 11.3 0.00 0.00 0.00 73 1014.6
20260904170057 26 321 3.2 8.0 0.00 0.00 0.00 73 1014.6
20260904164600 26 317 1.6 11.3 0.00 0.00 0.00 75 1014.7
20260904163057 26 20 3.2 9.7 0.00 0.00 0.00 73 1014.9
20260904161557 26 330 1.6 6.4 0.00 0.00 0.00 72 1014.9
20260904160053 26 338 3.2 8.0 0.00 0.00 0.00 72 1014.9
20260904133111 24 337 1.6 9.7 0.00 0.00 0.00 79 1014.7
20260904131556 24 330 1.6 11.3 0.00 0.00 0.00 81 1014.8
20260904130106 23 337 3.2 8.0 0.00 0.00 0.00 81 1014.6
20260904124551 23 334 1.6 8.0 0.00 0.00 0.00 83 1014.7
20260904123052 22 0 1.6 6.4 0.00 0.00 0.00 85 1014.4
20260904121555 21 327 3.2 6.4 0.00 0.00 0.00 87 1014.3
20260904120106 21 340 3.2 8.0 0.00 0.00 0.00 89 1014.4
20260904114552 20 336 4.8 9.7 0.00 0.00 0.00 90 1014.4
20260904113049 20 323 3.2 8.0 0.00 0.00 0.00 90 1014.4
20260904111558 20 333 1.6 8.0 0.00 0.00 0.00 90 1014.3
20260904110057 20 342 1.6 8.0 0.00 0.00 0.00 90 1014.2
20260904104552 20 331 3.2 12.9 0.00 0.00 0.00 90 1014.1
20260904103059 20 319 3.2 11.3 0.00 0.00 0.00 89 1013.9
20260904101557 20 340 3.2 12.9 0.00 0.00 0.00 89 1013.8
20260904100056 20 340 3.2 11.3 0.00 0.00 0.00 88 1013.8
20260904094550 20 29 3.2 11.3 0.00 0.00 0.00 88 1013.8
20260904093058 20 317 3.2 12.9 0.00 0.00 0.00 88 1013.5
20260904091554 20 316 4.8 16.1 0.00 0.00 0.00 88 1013.4
20260904090049 20 335 4.8 12.9 0.00 0.00 0.00 88 1013.3
20260904084601 20 336 6.4 14.5 0.00 0.00 0.00 88 1013.1
20260904083054 20 329 6.4 16.1 0.00 0.00 0.00 87 1013.0
20260904081551 20 340 6.4 17.7 0.00 0.00 0.00 87 1012.9
20260904080118 20 340 8.0 17.7 0.00 0.00 0.00 87 1012.8
20260904074557 20 345 9.7 19.3 0.00 0.00 0.00 86 1012.7
20260904073053 21 360 8.0 17.7 0.00 0.00 0.00 86 1012.7
20260904071553 21 340 6.4 16.1 0.00 0.00 0.00 86 1012.7
20260904070057 21 330 6.4 17.7 0.00 0.00 0.00 85 1012.6
20260904064549 21 346 8.0 19.3 0.00 0.00 0.00 84 1012.5
20260904063112 21 348 8.0 19.3 0.00 0.00 0.00 85 1012.7
20260904061549 21 319 8.0 16.1 0.00 0.00 0.00 86 1012.8
20260904054558 21 305 6.4 12.9 0.00 0.00 0.00 89 1012.8
20260904053113 21 0 1.6 8.0 0.00 0.00 0.00 90 1013.0
20260904051551 21 321 4.8 12.9 0.00 0.00 0.00 89 1013.1
20260904050053 21 341 4.8 11.3 0.00 0.00 0.00 87 1013.2
20260904044547 21 329 4.8 12.9 0.00 0.00 0.00 85 1013.3
20260904043100 21 331 4.8 11.3 0.00 0.00 0.00 85 1013.1
20260904041555 21 233 6.4 11.3 0.00 0.00 0.00 87 1013.0
20260904040104 21 244 3.2 8.0 0.00 0.00 0.00 89 1012.9
20260904034602 21 28 3.2 8.0 0.00 0.00 0.00 89 1012.8
20260904033053 21 28 3.2 8.0 0.00 0.00 0.00 89 1012.6
20260904031555 21 28 4.8 6.4 0.00 0.00 0.00 88 1012.6
20260904030059 21 28 3.2 6.4 0.00 0.00 0.00 87 1012.7
20260904024548 21 28 3.2 6.4 0.00 0.00 0.00 88 1012.9
20260904023056 21 28 3.2 8.0 0.00 0.00 0.00 89 1012.7
20260904021558 21 28 3.2 6.4 0.00 0.00 0.00 89 1012.8
20260904020055 21 0 0.0 0.0 0.00 0.00 0.00 90 1012.9
20260904014602 21 0 0.0 0.0 0.00 0.00 0.00 90 1013.0
20260904013107 21 0 0.0 0.0 0.00 0.00 0.00 89 1012.9
20260904011609 21 0 0.0 0.0 0.00 0.00 0.00 89 1012.7